Wind_Speed
5 5 5 5 5 5 6 7 8 8 9 10 11 12 13 13 13 13 13 13 13 12 12 12 12 12 11 11 10 10 10 10 10 11 11 13 14 15 15 16 17 18 19
6 6 6 6 6 6 6 7 8 9 10 11 12 12 13 14 14 14 14 14 13 13 13 13 13 12 12 11 10 10 10 10 10 11 11 13 14 15 16 16 17 18 19
8 8 7 7 7 7 7 8 9 10 11 11 12 13 13 14 14 14 14 14 14 14 14 13 13 13 13 12 11 11 11 11 11 11 11 13 14 15 16 17 18 18 19
8 8 8 8 8 8 9 9 10 10 11 12 12 13 14 14 15 15 15 14 14 14 14 14 14 14 14 13 12 12 11 11 12 12 12 13 14 15 16 17 18 19 20
9 9 9 9 9 9 10 10 10 11 12 13 13 14 15 15 16 16 15 15 15 15 15 15 15 15 14 13 12 12 12 12 12 13 13 14 14 15 16 17 19 19 20
10 10 10 10 10 10 10 11 12 13 13 14 15 15 16 16 16 16 16 16 17 17 16 16 16 16 16 15 14 13 13 13 13 14 15 16 16 17 17 19 20 21 22
11 11 11 11 11 12 12 12 13 14 15 16 16 17 17 17 17 17 17 17 18 18 18 18 18 18 17 17 16 16 15 15 15 16 17 17 18 19 20 20 22 22 23
12 12 13 13 14 14 15 15 16 16 17 17 18 18 18 18 18 18 18 19 19 19 19 19 19 19 19 19 19 18 18 18 19 19 20 20 20 21 22 23 24 25 26
14 15 15 15 16 17 17 18 18 19 19 19 19 19 19 19 19 20 20 20 20 21 21 21 21 21 21 21 21 21 21 21 22 23 23 23 23 24 25 26 27 27 28
16 16 17 17 18 18 19 20 20 20 21 21 21 21 21 21 21 22 22 22 22 22 23 23 24 24 24 24 24 24 24 24 25 25 26 26 27 27 27 28 29 30 30
18 18 19 19 20 20 21 22 22 22 23 23 23 23 23 23 24 24 25 25 24 25 25 26 26 27 26 26 27 27 27 27 28 28 28 28 28 28 29 30 31 31 32
19 20 21 22 22 23 24 24 24 24 25 25 25 25 25 26 26 26 27 27 28 28 29 29 29 29 29 29 29 29 30 30 30 30 31 31 31 31 31 32 33 33 34
21 22 23 24 25 25 26 26 26 26 27 27 27 27 27 28 28 28 29 29 31 31 32 32 33 33 33 33 32 32 32 32 32 32 32 32 32 32 32 32 33 33 33
24 25 26 27 27 27 27 28 28 28 29 29 30 30 30 30 31 31 32 33 34 34 35 36 36 35 35 35 35 34 34 35 35 35 34 34 33 32 32 33 33 34 34
27 27 28 29 29 30 30 30 30 31 31 32 32 32 33 34 34 35 35 36 37 37 38 38 38 38 37 37 37 36 36 36 37 36 36 34 34 34 34 35 36 36 35
29 29 30 31 31 32 32 32 32 33 33 34 34 35 36 37 38 38 39 39 39 39 39 39 39 39 39 39 38 37 36 36 36 36 36 35 35 35 36 36 36 36 36
30 31 32 33 33 34 34 34 35 35 36 36 37 38 39 40 40 41 42 42 41 41 40 41 41 41 40 39 38 38 37 36 36 36 36 35 35 36 36 36 36 36 36
33 33 34 34 35 35 36 36 36 37 38 38 39 40 41 42 42 43 44 43 42 42 42 42 41 41 40 39 38 38 38 38 37 37 37 36 36 37 37 37 37 37 37
34 35 35 36 37 37 38 38 39 39 40 40 41 42 42 43 43 43 43 44 43 43 42 42 41 41 40 40 39 39 39 39 38 38 39 39 39 38 38 37 37 38 38
36 37 37 38 39 40 40 41 41 41 42 43 43 43 44 44 44 44 44 45 44 44 42 42 41 41 41 41 40 40 40 40 40 39 39 40 39 39 39 39 39 39 39
38 38 39 40 41 41 42 43 43 43 44 44 44 44 44 45 45 45 45 45 45 44 43 42 42 41 42 41 42 42 41 41 40 40 39 40 39 39 39 39 39 39 39
39 40 41 41 42 42 43 44 44 44 45 45 45 45 45 46 46 45 45 45 44 44 43 43 43 42 42 42 43 42 42 41 41 40 39 39 39 39 39 39 39 39 39
41 41 42 42 43 43 43 44 45 45 45 46 46 46 46 46 46 46 46 45 44 44 44 44 44 44 44 43 42 42 42 41 40 40 39 39 39 39 39 39 39 38 38
41 41 42 42 43 43 44 45 46 46 47 47 48 47 47 47 47 46 47 46 46 45 45 45 45 44 43 43 42 41 40 40 40 40 39 39 39 39 39 38 38 37 37
42 42 42 43 44 45 46 47 48 48 48 49 49 48 47 47 47 47 47 47 46 46 45 45 45 44 43 42 42 41 40 40 40 40 39 39 38 38 38 37 37 37 36
43 44 45 46 46 47 48 48 49 49 49 49 49 48 48 48 48 48 48 47 47 47 47 46 44 43 43 42 41 41 40 40 40 40 41 40 39 37 37 37 37 36 36
Wind_Direction
255 258 264 272 286 300 311 322 328 332 337 339 340 341 341 341 342 343 342 342 339 335 332 329 325 320 315 308 301 293 288 281 277 267 259 251 248 247 246 246 245 245 243
259 262 266 271 282 295 307 317 322 325 328 332 334 335 337 338 338 339 338 337 336 333 330 327 324 321 316 308 298 292 289 282 276 269 261 255 250 248 246 245 245 246 245
258 262 268 274 283 292 300 310 316 320 323 326 327 329 331 334 334 334 334 333 332 331 331 329 325 320 315 308 297 290 286 282 279 273 265 261 254 251 249 247 247 248 247
259 263 267 274 283 290 297 304 310 316 319 322 323 326 329 331 331 330 330 330 329 328 329 328 324 321 316 311 301 294 286 281 277 274 271 269 262 257 253 251 251 251 251
261 264 267 272 280 287 294 300 306 312 317 318 320 322 325 326 327 326 326 327 327 326 325 325 323 319 315 312 306 300 292 285 278 276 274 272 268 263 258 255 254 254 254
260 264 268 273 279 286 292 296 302 308 311 313 316 317 319 320 322 323 322 322 322 322 321 321 319 317 313 308 305 300 294 289 283 279 277 274 270 265 262 259 257 256 256
262 265 270 276 281 286 291 295 299 303 305 308 311 313 315 316 317 317 318 318 319 318 318 317 315 314 309 306 301 299 294 290 287 283 280 276 272 269 266 263 261 260 259
265 270 275 279 283 287 291 295 298 300 301 304 308 309 311 312 314 314 314 315 314 314 314 313 312 311 308 304 301 298 295 289 287 285 283 279 276 272 268 266 264 263 262
267 272 276 279 283 287 290 293 296 297 299 302 304 306 308 309 310 309 310 311 311 311 311 310 308 308 307 302 299 296 294 289 286 286 285 281 277 273 270 268 266 265 263
271 275 278 281 283 286 289 291 293 294 296 299 301 303 305 306 307 307 307 307 308 308 308 308 306 304 303 299 296 294 291 289 287 285 284 282 278 275 272 270 269 267 266
274 278 281 284 285 287 290 291 292 292 294 296 297 299 300 302 303 304 305 305 305 306 306 305 305 304 301 298 294 292 291 289 287 285 283 281 278 275 274 272 271 270 268
276 279 282 284 285 287 289 291 291 291 293 294 295 296 297 299 300 301 302 302 302 303 303 303 302 302 300 298 295 292 291 290 288 286 284 282 280 277 275 273 271 270 270
277 279 282 283 285 287 289 289 290 291 292 293 294 295 296 297 298 299 300 300 301 301 301 301 301 300 298 297 296 293 290 289 288 287 285 284 280 277 274 273 271 271 270
277 280 281 282 284 286 287 288 289 290 291 293 294 295 296 296 297 298 299 299 300 301 301 299 298 298 298 297 295 293 290 288 287 286 285 283 279 276 274 273 273 272 271
278 280 281 282 284 285 286 287 288 289 290 292 293 294 295 296 297 297 298 299 299 300 300 299 298 297 296 295 294 291 289 287 286 284 283 281 278 277 276 275 274 274 273
279 280 282 283 284 285 286 287 288 288 289 291 292 293 295 296 297 297 297 297 298 298 297 297 296 296 295 293 292 290 288 287 286 284 282 279 278 278 277 276 276 275 274
280 281 283 283 284 285 286 287 288 288 289 291 292 293 295 296 297 297 297 297 297 296 296 295 295 294 293 292 290 289 286 284 283 281 279 279 279 278 277 276 276 275 275
280 282 283 283 284 285 286 287 288 288 290 291 292 294 295 296 297 297 297 296 295 295 295 294 293 292 291 290 289 287 285 283 282 280 280 279 279 278 277 275 275 275 275
281 282 283 284 285 285 286 287 288 289 291 292 293 294 295 296 296 296 296 295 295 294 294 294 293 291 290 290 288 287 285 283 282 281 280 279 278 277 276 275 275 275 275
281 282 283 284 286 287 288 289 290 290 292 293 293 294 295 295 295 296 296 295 295 294 294 294 293 292 291 290 288 287 285 283 282 281 280 279 278 278 276 276 275 275 275
280 282 284 285 286 287 288 289 290 291 292 292 293 293 294 294 295 295 295 294 295 294 293 294 293 291 290 289 288 287 286 283 281 280 279 279 278 278 277 276 275 275 275
282 283 284 286 287 288 289 289 290 291 292 292 293 293 294 294 294 295 295 295 295 294 294 294 293 291 290 289 288 287 286 284 282 280 279 278 277 277 277 277 276 274 274
283 284 285 286 287 288 290 291 291 292 292 293 293 293 294 293 293 294 294 295 295 294 294 293 292 291 290 288 288 287 285 283 282 281 278 278 278 278 277 276 275 274 273
283 284 285 287 288 289 290 291 292 292 293 293 293 293 293 293 293 293 294 294 294 294 294 293 292 291 290 289 288 286 285 283 282 282 279 277 278 277 277 276 274 273 273
283 284 286 287 288 289 290 291 292 292 293 293 293 293 293 293 293 294 294 294 294 294 294 293 291 289 288 287 286 285 284 283 282 282 279 277 276 276 276 275 274 274 273
283 284 286 287 289 290 291 292 292 292 293 293 293 293 293 293 293 293 294 294 294 293 293 291 290 289 287 286 284 284 283 282 282 281 279 276 275 275 274 273 274 274 273
Height
5873 5872 5872 5872 5871 5870 5869 5868 5867 5865 5864 5862 5859 5857 5855 5852 5849 5847 5844 5841 5839 5837 5834 5832 5830 5828 5827 5825 5824 5824 5823 5823 5823 5823 5823 5824 5825 5826 5828 5829 5830 5832 5834
5871 5871 5870 5870 5869 5868 5867 5866 5865 5864 5862 5860 5858 5856 5853 5850 5848 5845 5842 5840 5837 5835 5832 5830 5828 5826 5824 5822 5821 5821 5820 5820 5820 5820 5821 5821 5822 5823 5824 5826 5827 5828 5830
5869 5868 5868 5868 5867 5866 5866 5864 5863 5862 5860 5858 5856 5854 5851 5848 5846 5843 5840 5838 5835 5833 5830 5828 5825 5823 5821 5819 5818 5817 5817 5817 5817 5817 5817 5818 5819 5819 5821 5822 5823 5824 5826
5866 5866 5866 5866 5865 5864 5863 5862 5861 5859 5858 5856 5854 5851 5849 5846 5843 5840 5838 5835 5833 5830 5828 5825 5822 5820 5818 5816 5815 5814 5814 5813 5813 5814 5814 5814 5815 5815 5816 5818 5819 5820 5821
5864 5863 5863 5863 5862 5862 5861 5860 5858 5857 5855 5853 5851 5849 5846 5843 5840 5838 5835 5833 5830 5828 5825 5822 5820 5817 5815 5813 5812 5811 5811 5810 5810 5810 5810 5811 5811 5811 5812 5813 5814 5815 5816
5860 5860 5860 5860 5860 5859 5858 5857 5855 5854 5852 5850 5848 5845 5843 5840 5837 5834 5832 5829 5827 5824 5822 5820 5817 5815 5812 5811 5809 5808 5807 5807 5807 5807 5807 5806 5806 5807 5807 5808 5809 5810 5811
5857 5857 5857 5857 5856 5855 5854 5853 5852 5850 5848 5846 5844 5841 5839 5836 5834 5831 5828 5826 5823 5821 5818 5816 5814 5811 5809 5807 5806 5804 5804 5803 5802 5802 5802 5801 5801 5801 5802 5802 5802 5803 5805
5853 5853 5853 5853 5852 5851 5850 5849 5847 5846 5844 5842 5840 5837 5835 5832 5830 5827 5825 5822 5819 5817 5814 5812 5810 5807 5805 5803 5802 5800 5799 5798 5797 5797 5796 5796 5795 5795 5795 5795 5796 5796 5797
5849 5849 5849 5848 5847 5846 5845 5844 5842 5840 5838 5836 5834 5832 5830 5827 5825 5822 5820 5818 5815 5812 5810 5808 5805 5803 5801 5798 5797 5795 5794 5793 5792 5791 5790 5789 5788 5788 5787 5788 5788 5788 5789
5844 5844 5844 5843 5842 5841 5840 5838 5836 5835 5833 5831 5829 5827 5824 5822 5820 5817 5815 5812 5810 5808 5805 5802 5800 5798 5795 5793 5791 5789 5788 5786 5785 5784 5783 5781 5780 5780 5779 5779 5779 5779 5779
5839 5839 5838 5837 5836 5835 5834 5832 5830 5829 5827 5825 5823 5821 5818 5816 5813 5811 5808 5806 5804 5801 5799 5796 5794 5791 5788 5786 5784 5782 5780 5778 5777 5775 5774 5773 5771 5771 5770 5769 5769 5769 5769
5833 5833 5832 5831 5830 5829 5827 5826 5824 5822 5820 5818 5816 5814 5811 5809 5807 5804 5801 5798 5796 5794 5791 5789 5786 5783 5780 5778 5775 5773 5771 5769 5767 5766 5765 5763 5762 5761 5760 5759 5759 5758 5758
5827 5826 5825 5824 5823 5822 5820 5818 5817 5815 5813 5811 5808 5806 5804 5801 5799 5796 5793 5791 5788 5785 5782 5780 5777 5774 5771 5768 5766 5763 5761 5759 5757 5756 5754 5753 5751 5750 5749 5749 5748 5748 5747
5820 5819 5818 5817 5816 5814 5813 5811 5809 5807 5805 5803 5800 5798 5795 5793 5790 5787 5785 5782 5779 5776 5773 5770 5767 5763 5760 5757 5755 5752 5750 5748 5746 5744 5743 5741 5739 5739 5738 5738 5737 5737 5736
5813 5812 5811 5809 5808 5806 5804 5803 5801 5799 5796 5794 5792 5789 5786 5784 5781 5778 5774 5772 5768 5765 5761 5758 5755 5752 5749 5746 5743 5740 5738 5735 5734 5732 5730 5729 5728 5727 5726 5726 5725 5724 5724
5804 5803 5802 5800 5799 5797 5796 5794 5792 5790 5787 5785 5782 5779 5776 5773 5770 5767 5763 5760 5757 5753 5749 5746 5743 5740 5737 5733 5731 5728 5725 5723 5721 5719 5718 5717 5716 5715 5714 5713 5713 5712 5712
5796 5794 5793 5791 5790 5788 5786 5784 5782 5780 5777 5775 5772 5768 5765 5762 5758 5755 5751 5748 5744 5740 5736 5733 5730 5726 5723 5721 5718 5715 5713 5711 5708 5707 5706 5705 5704 5703 5702 5701 5701 5700 5699
5786 5785 5783 5781 5780 5778 5775 5773 5771 5769 5766 5763 5760 5757 5753 5750 5746 5742 5738 5734 5731 5727 5723 5720 5716 5713 5710 5708 5705 5703 5700 5698 5696 5695 5694 5693 5692 5691 5690 5689 5688 5688 5687
5776 5774 5773 5771 5769 5767 5764 5762 5760 5757 5754 5751 5748 5745 5741 5737 5733 5729 5725 5721 5717 5714 5710 5706 5703 5700 5697 5694 5692 5690 5688 5686 5684 5683 5681 5680 5679 5678 5677 5676 5676 5675 5674
5766 5764 5762 5760 5758 5755 5753 5750 5747 5745 5742 5738 5735 5732 5728 5724 5720 5716 5712 5708 5704 5700 5697 5693 5690 5687 5684 5681 5679 5677 5675 5673 5671 5669 5668 5667 5666 5664 5664 5663 5662 5661 5661
5754 5752 5750 5748 5746 5743 5740 5737 5734 5731 5728 5725 5722 5718 5714 5710 5706 5703 5698 5694 5690 5687 5683 5680 5677 5674 5671 5668 5665 5663 5661 5659 5657 5656 5654 5653 5652 5651 5650 5649 5648 5647 5647
5742 5740 5738 5736 5733 5730 5727 5724 5721 5718 5715 5711 5708 5704 5701 5697 5693 5689 5685 5681 5677 5673 5670 5667 5663 5660 5657 5655 5652 5649 5647 5645 5643 5642 5641 5640 5639 5638 5636 5635 5634 5633 5633
5730 5727 5725 5723 5720 5717 5714 5711 5708 5704 5701 5697 5694 5690 5687 5683 5679 5675 5671 5667 5663 5660 5656 5652 5649 5646 5643 5640 5637 5634 5632 5631 5629 5627 5626 5626 5625 5624 5623 5622 5621 5620 5619
5717 5715 5712 5710 5707 5704 5701 5698 5694 5691 5687 5683 5679 5676 5672 5668 5664 5661 5657 5653 5649 5646 5642 5638 5635 5632 5629 5626 5623 5621 5618 5617 5615 5613 5612 5612 5611 5610 5609 5608 5607 5606 5605
5704 5702 5699 5697 5694 5691 5687 5684 5680 5676 5673 5669 5665 5661 5657 5653 5650 5646 5642 5638 5635 5631 5627 5623 5620 5617 5614 5611 5609 5607 5605 5603 5601 5599 5598 5597 5597 5596 5595 5594 5594 5593 5593
5691 5688 5686 5683 5680 5676 5673 5669 5666 5662 5658 5654 5650 5646 5642 5638 5635 5631 5627 5623 5619 5616 5612 5609 5605 5602 5599 5597 5595 5593 5591 5589 5587 5585 5584 5583 5583 5582 5582 5581 5581 5580 5580